Time,TemperatureF,DewpointF,PressureIn,WindDirection,WindDirectionDegrees,WindSpeedMPH,WindSpeedGustMPH,Humidity,HourlyPrecipIn,Conditions,Clouds,dailyrainin,SoftwareType,DateUTC
2013-05-17 00:03:00,64.0,34.0,-100.00,West,265,1.0,5.0,33,-99.99,,,-99.99,,2013-05-17 04:03:00,
2013-05-17 00:13:00,62.0,36.0,-100.00,ENE,70,1.0,2.0,38,-99.99,,,-99.99,,2013-05-17 04:13:00,
2013-05-17 00:23:00,60.0,37.0,-100.00,North,0,1.0,2.0,42,-99.99,,,-99.99,,2013-05-17 04:23:00,
2013-05-17 00:34:00,59.0,37.0,-100.00,NNW,335,1.0,3.0,44,-99.99,,,-99.99,,2013-05-17 04:34:00,
2013-05-17 00:43:00,58.0,37.0,-100.00,SSE,160,0.0,1.0,46,-99.99,,,-99.99,,2013-05-17 04:43:00,
2013-05-17 00:53:00,58.0,39.0,-100.00,NE,35,1.0,2.0,49,-99.99,,,-99.99,,2013-05-17 04:53:00,
2013-05-17 01:03:00,57.0,39.0,-100.00,ESE,110,0.0,2.0,51,-99.99,,,-99.99,,2013-05-17 05:03:00,
2013-05-17 01:14:00,57.0,38.0,-100.00,East,80,0.0,1.0,50,-99.99,,,-99.99,,2013-05-17 05:14:00,
2013-05-17 01:22:00,59.0,41.0,-100.00,ESE,110,1.0,3.0,51,-99.99,,,-99.99,,2013-05-17 05:22:00,
2013-05-17 01:32:00,60.0,42.0,-100.00,ENE,75,2.0,8.0,52,-99.99,,,-99.99,,2013-05-17 05:32:00,
2013-05-17 01:43:00,60.0,42.0,-100.00,ENE,70,2.0,7.0,52,-99.99,,,-99.99,,2013-05-17 05:43:00,
2013-05-17 01:52:00,60.0,42.0,-100.00,ESE,115,2.0,6.0,52,-99.99,,,-99.99,,2013-05-17 05:52:00,
2013-05-17 02:02:00,59.0,42.0,-100.00,East,85,1.0,8.0,53,-99.99,,,-99.99,,2013-05-17 06:02:00,
2013-05-17 02:11:00,58.0,42.0,-100.00,ESE,105,1.0,5.0,54,-99.99,,,-99.99,,2013-05-17 06:11:00,
2013-05-17 02:22:00,58.0,42.0,-100.00,West,275,1.0,5.0,55,-99.99,,,-99.99,,2013-05-17 06:22:00,
2013-05-17 02:32:00,58.0,42.0,-100.00,West,275,1.0,5.0,55,-99.99,,,-99.99,,2013-05-17 06:32:00,
2013-05-17 02:42:00,56.0,42.0,-100.00,SSE,160,0.0,2.0,59,-99.99,,,-99.99,,2013-05-17 06:42:00,
2013-05-17 02:52:00,56.0,42.0,-100.00,East,100,1.0,2.0,60,-99.99,,,-99.99,,2013-05-17 06:52:00,
2013-05-17 03:03:00,54.0,43.0,-100.00,North,355,0.0,1.0,64,-99.99,,,-99.99,,2013-05-17 07:03:00,
2013-05-17 03:11:00,54.0,43.0,-100.00,NNW,335,1.0,1.0,66,-99.99,,,-99.99,,2013-05-17 07:11:00,
2013-05-17 03:21:00,53.0,43.0,-100.00,NW,315,1.0,2.0,69,-99.99,,,-99.99,,2013-05-17 07:21:00,
2013-05-17 03:32:00,53.0,43.0,-100.00,SW,235,1.0,6.0,70,-99.99,,,-99.99,,2013-05-17 07:32:00,
2013-05-17 03:43:00,52.0,43.0,-100.00,South,180,1.0,1.0,71,-99.99,,,-99.99,,2013-05-17 07:43:00,
2013-05-17 03:53:00,51.0,43.0,-100.00,NW,315,0.0,1.0,72,-99.99,,,-99.99,,2013-05-17 07:53:00,
2013-05-17 04:02:00,51.0,43.0,-100.00,West,265,1.0,1.0,74,-99.99,,,-99.99,,2013-05-17 08:02:00,
2013-05-17 04:12:00,51.0,43.0,-100.00,West,270,1.0,2.0,74,-99.99,,,-99.99,,2013-05-17 08:12:00,
2013-05-17 04:23:00,50.0,43.0,-100.00,West,275,1.0,2.0,75,-99.99,,,-99.99,,2013-05-17 08:23:00,
2013-05-17 04:34:00,50.0,43.0,-100.00,West,275,1.0,2.0,76,-99.99,,,-99.99,,2013-05-17 08:34:00,
2013-05-17 04:42:00,50.0,43.0,-100.00,WSW,255,1.0,2.0,77,-99.99,,,-99.99,,2013-05-17 08:42:00,
2013-05-17 04:52:00,49.0,43.0,-100.00,WNW,285,0.0,1.0,80,-99.99,,,-99.99,,2013-05-17 08:52:00,
2013-05-17 05:02:00,49.0,43.0,-100.00,West,275,0.0,1.0,81,-99.99,,,-99.99,,2013-05-17 09:02:00,
2013-05-17 05:12:00,48.0,43.0,-100.00,West,275,1.0,1.0,82,-99.99,,,-99.99,,2013-05-17 09:12:00,
2013-05-17 05:23:00,48.0,43.0,-100.00,WSW,240,1.0,1.0,83,-99.99,,,-99.99,,2013-05-17 09:23:00,
2013-05-17 05:33:00,48.0,43.0,-100.00,SW,225,1.0,5.0,83,-99.99,,,-99.99,,2013-05-17 09:33:00,
2013-05-17 05:42:00,49.0,43.0,-100.00,WSW,245,0.0,7.0,80,-99.99,,,-99.99,,2013-05-17 09:42:00,
2013-05-17 05:53:00,50.0,43.0,-100.00,South,180,1.0,5.0,77,-99.99,,,-99.99,,2013-05-17 09:53:00,
2013-05-17 06:03:00,50.0,42.0,-100.00,NW,320,1.0,3.0,73,-99.99,,,-99.99,,2013-05-17 10:03:00,
2013-05-17 06:12:00,50.0,42.0,-100.00,West,260,0.0,2.0,73,-99.99,,,-99.99,,2013-05-17 10:12:00,
2013-05-17 06:23:00,51.0,42.0,-100.00,NNW,345,1.0,5.0,72,-99.99,,,-99.99,,2013-05-17 10:23:00,
2013-05-17 06:33:00,52.0,42.0,-100.00,North,5,2.0,6.0,68,-99.99,,,-99.99,,2013-05-17 10:33:00,
2013-05-17 06:42:00,53.0,42.0,-100.00,NNE,25,2.0,8.0,67,-99.99,,,-99.99,,2013-05-17 10:42:00,
2013-05-17 06:53:00,53.0,42.0,-100.00,North,355,2.0,7.0,66,-99.99,,,-99.99,,2013-05-17 10:53:00,
2013-05-17 07:02:00,53.0,42.0,-100.00,ENE,65,1.0,7.0,65,-99.99,,,-99.99,,2013-05-17 11:02:00,
2013-05-17 07:12:00,53.0,42.0,-100.00,East,80,2.0,7.0,66,-99.99,,,-99.99,,2013-05-17 11:12:00,
2013-05-17 07:23:00,53.0,42.0,-100.00,North,5,2.0,6.0,66,-99.99,,,-99.99,,2013-05-17 11:23:00,
2013-05-17 07:34:00,54.0,42.0,-100.00,East,90,2.0,7.0,65,-99.99,,,-99.99,,2013-05-17 11:34:00,
2013-05-17 07:42:00,54.0,42.0,-100.00,North,350,1.0,7.0,64,-99.99,,,-99.99,,2013-05-17 11:42:00,
2013-05-17 07:53:00,55.0,42.0,-100.00,East,80,5.0,12.0,61,-99.99,,,-99.99,,2013-05-17 11:53:00,
2013-05-17 08:03:00,56.0,42.0,-100.00,East,95,2.0,8.0,59,-99.99,,,-99.99,,2013-05-17 12:03:00,
2013-05-17 08:12:00,56.0,42.0,-100.00,West,270,1.0,14.0,60,-99.99,,,-99.99,,2013-05-17 12:12:00,
2013-05-17 08:23:00,56.0,42.0,-100.00,East,85,3.0,15.0,58,-99.99,,,-99.99,,2013-05-17 12:23:00,
2013-05-17 08:33:00,56.0,41.0,-100.00,SE,125,2.0,13.0,56,-99.99,,,-99.99,,2013-05-17 12:33:00,
2013-05-17 08:43:00,57.0,41.0,-100.00,East,85,2.0,9.0,56,-99.99,,,-99.99,,2013-05-17 12:43:00,
2013-05-17 08:53:00,58.0,42.0,-100.00,ENE,75,2.0,10.0,55,-99.99,,,-99.99,,2013-05-17 12:53:00,
2013-05-17 09:04:00,58.0,42.0,-100.00,North,10,2.0,10.0,55,-99.99,,,-99.99,,2013-05-17 13:04:00,
2013-05-17 09:12:00,58.0,42.0,-100.00,North,10,2.0,10.0,55,-99.99,,,-99.99,,2013-05-17 13:12:00,
2013-05-17 09:23:00,59.0,42.0,-100.00,SE,140,2.0,7.0,53,-99.99,,,-99.99,,2013-05-17 13:23:00,
2013-05-17 09:33:00,60.0,42.0,-100.00,ENE,75,2.0,7.0,51,-99.99,,,-99.99,,2013-05-17 13:33:00,
2013-05-17 09:42:00,60.0,41.0,-100.00,East,95,2.0,7.0,49,-99.99,,,-99.99,,2013-05-17 13:42:00,
2013-05-17 09:52:00,60.0,42.0,-100.00,East,100,1.0,8.0,50,-99.99,,,-99.99,,2013-05-17 13:52:00,
2013-05-17 10:02:00,61.0,41.0,-100.00,ENE,75,2.0,9.0,48,-99.99,,,-99.99,,2013-05-17 14:02:00,
2013-05-17 10:13:00,61.0,41.0,-100.00,South,170,2.0,9.0,47,-99.99,,,-99.99,,2013-05-17 14:13:00,
2013-05-17 10:22:00,62.0,41.0,-100.00,ENE,65,2.0,10.0,47,-99.99,,,-99.99,,2013-05-17 14:22:00,
2013-05-17 10:34:00,62.0,41.0,-100.00,West,270,2.0,8.0,46,-99.99,,,-99.99,,2013-05-17 14:34:00,
2013-05-17 10:43:00,64.0,42.0,-100.00,East,100,2.0,9.0,45,-99.99,,,-99.99,,2013-05-17 14:43:00,
2013-05-17 10:53:00,64.0,43.0,-100.00,East,90,2.0,8.0,45,-99.99,,,-99.99,,2013-05-17 14:53:00,
2013-05-17 11:03:00,65.0,42.0,-100.00,East,95,2.0,12.0,44,-99.99,,,-99.99,,2013-05-17 15:03:00,
2013-05-17 11:14:00,65.0,43.0,-100.00,ESE,115,2.0,8.0,44,-99.99,,,-99.99,,2013-05-17 15:14:00,
2013-05-17 11:25:00,65.0,41.0,-100.00,East,80,3.0,10.0,41,-99.99,,,-99.99,,2013-05-17 15:25:00,
2013-05-17 11:37:00,65.0,41.0,-100.00,ENE,75,2.0,8.0,41,-99.99,,,-99.99,,2013-05-17 15:37:00,
2013-05-17 11:47:00,66.0,42.0,-100.00,South,175,3.0,9.0,41,-99.99,,,-99.99,,2013-05-17 15:47:00,
2013-05-17 11:56:00,66.0,43.0,-100.00,East,80,1.0,8.0,43,-99.99,,,-99.99,,2013-05-17 15:56:00,
2013-05-17 12:07:00,67.0,42.0,-100.00,SE,140,3.0,8.0,41,-99.99,,,-99.99,,2013-05-17 16:07:00,
2013-05-17 12:14:00,68.0,42.0,-100.00,ENE,75,3.0,9.0,39,-99.99,,,-99.99,,2013-05-17 16:14:00,
2013-05-17 12:26:00,64.0,42.0,-100.00,East,85,2.0,9.0,44,-99.99,,,-99.99,,2013-05-17 16:26:00,
2013-05-17 12:37:00,64.0,42.0,-100.00,ENE,65,2.0,7.0,45,-99.99,,,-99.99,,2013-05-17 16:37:00,
2013-05-17 12:49:00,69.0,46.0,-100.00,South,175,1.0,7.0,44,-99.99,,,-99.99,,2013-05-17 16:49:00,
2013-05-17 12:56:00,69.0,46.0,-100.00,South,175,1.0,7.0,44,-99.99,,,-99.99,,2013-05-17 16:56:00,
2013-05-17 13:08:00,67.0,44.0,-100.00,ESE,115,2.0,8.0,44,-99.99,,,-99.99,,2013-05-17 17:08:00,
2013-05-17 13:19:00,69.0,44.0,-100.00,ESE,110,2.0,12.0,40,-99.99,,,-99.99,,2013-05-17 17:19:00,
2013-05-17 13:30:00,68.0,44.0,-100.00,East,100,2.0,12.0,42,-99.99,,,-99.99,,2013-05-17 17:30:00,
2013-05-17 13:40:00,68.0,-99.9,-100.00,SSE,160,3.0,9.0,42,-99.99,,,-99.99,,2013-05-17 17:40:00,
2013-05-17 13:49:00,68.0,42.0,-100.00,SE,140,2.0,15.0,39,-99.99,,,-99.99,,2013-05-17 17:49:00,
2013-05-17 14:00:00,66.0,43.0,-100.00,SE,125,2.0,7.0,43,-99.99,,,-99.99,,2013-05-17 18:00:00,
2013-05-17 14:09:00,67.0,43.0,-100.00,SE,125,2.0,8.0,41,-99.99,,,-99.99,,2013-05-17 18:09:00,
2013-05-17 14:20:00,66.0,42.0,-100.00,SE,125,2.0,14.0,41,-99.99,,,-99.99,,2013-05-17 18:20:00,
2013-05-17 14:30:00,66.0,43.0,-100.00,ENE,70,2.0,8.0,43,-99.99,,,-99.99,,2013-05-17 18:30:00,
2013-05-17 14:40:00,68.0,-99.9,-100.00,East,100,3.0,10.0,39,-99.99,,,-99.99,,2013-05-17 18:40:00,
2013-05-17 14:50:00,-999.0,-99.9,-100.00,SE,135,2.0,14.0,39,-99.99,,,-99.99,,2013-05-17 18:50:00,
2013-05-17 15:00:00,69.0,44.0,-100.00,ESE,105,2.0,10.0,41,-99.99,,,-99.99,,2013-05-17 19:00:00,
2013-05-17 15:10:00,68.0,41.0,-100.00,ESE,110,3.0,8.0,37,-99.99,,,-99.99,,2013-05-17 19:10:00,
2013-05-17 15:20:00,68.0,42.0,-100.00,SE,140,3.0,10.0,38,-99.99,,,-99.99,,2013-05-17 19:20:00,
2013-05-17 15:30:00,69.0,42.0,-100.00,East,95,2.0,13.0,38,-99.99,,,-99.99,,2013-05-17 19:30:00,
2013-05-17 15:40:00,69.0,41.0,-100.00,NE,45,5.0,13.0,36,-99.99,,,-99.99,,2013-05-17 19:40:00,
2013-05-17 15:51:00,70.0,42.0,-100.00,East,95,2.0,12.0,37,-99.99,,,-99.99,,2013-05-17 19:51:00,
2013-05-17 16:00:00,69.0,-99.9,-100.00,SE,140,3.0,10.0,35,-99.99,,,-99.99,,2013-05-17 20:00:00,
2013-05-17 16:10:00,69.0,42.0,-100.00,SE,125,2.0,7.0,37,-99.99,,,-99.99,,2013-05-17 20:10:00,
2013-05-17 16:20:00,69.0,40.0,-100.00,ESE,115,2.0,8.0,35,-99.99,,,-99.99,,2013-05-17 20:20:00,
2013-05-17 16:30:00,70.0,41.0,-100.00,ENE,70,5.0,15.0,35,-99.99,,,-99.99,,2013-05-17 20:30:00,
2013-05-17 16:40:00,69.0,40.0,-100.00,East,85,2.0,12.0,34,-99.99,,,-99.99,,2013-05-17 20:40:00,
2013-05-17 16:50:00,71.0,42.0,-100.00,East,95,2.0,9.0,36,-99.99,,,-99.99,,2013-05-17 20:50:00,
2013-05-17 16:58:00,70.0,43.0,-100.00,SE,130,2.0,8.0,37,-99.99,,,-99.99,,2013-05-17 20:58:00,
2013-05-17 17:07:00,70.0,41.0,-100.00,SE,135,3.0,10.0,35,-99.99,,,-99.99,,2013-05-17 21:07:00,
2013-05-17 17:17:00,70.0,40.0,-100.00,SE,125,2.0,10.0,34,-99.99,,,-99.99,,2013-05-17 21:17:00,
2013-05-17 17:26:00,69.0,40.0,-100.00,East,80,2.0,6.0,34,-99.99,,,-99.99,,2013-05-17 21:26:00,
2013-05-17 17:39:00,69.0,39.0,-100.00,ESE,115,2.0,8.0,33,-99.99,,,-99.99,,2013-05-17 21:39:00,
2013-05-17 17:49:00,69.0,40.0,-100.00,East,100,2.0,7.0,34,-99.99,,,-99.99,,2013-05-17 21:49:00,
2013-05-17 17:57:00,69.0,39.0,-100.00,ESE,120,2.0,7.0,33,-99.99,,,-99.99,,2013-05-17 21:57:00,
2013-05-17 18:07:00,69.0,38.0,-100.00,ENE,70,5.0,10.0,32,-99.99,,,-99.99,,2013-05-17 22:07:00,
2013-05-17 18:17:00,69.0,37.0,-100.00,ENE,70,3.0,9.0,31,-99.99,,,-99.99,,2013-05-17 22:17:00,
2013-05-17 18:28:00,70.0,39.0,-100.00,East,95,1.0,10.0,32,-99.99,,,-99.99,,2013-05-17 22:28:00,
2013-05-17 18:38:00,69.0,38.0,-100.00,East,95,2.0,12.0,32,-99.99,,,-99.99,,2013-05-17 22:38:00,
2013-05-17 18:47:00,69.0,37.0,-100.00,East,90,2.0,12.0,31,-99.99,,,-99.99,,2013-05-17 22:47:00,
2013-05-17 18:54:00,69.0,37.0,-100.00,East,90,2.0,12.0,31,-99.99,,,-99.99,,2013-05-17 22:54:00,
2013-05-17 19:04:00,68.0,39.0,-100.00,ENE,65,2.0,7.0,34,-99.99,,,-99.99,,2013-05-17 23:04:00,
2013-05-17 19:13:00,68.0,39.0,-100.00,SE,140,1.0,7.0,34,-99.99,,,-99.99,,2013-05-17 23:13:00,
2013-05-17 19:23:00,66.0,39.0,-100.00,SE,130,1.0,7.0,36,-99.99,,,-99.99,,2013-05-17 23:23:00,
2013-05-17 19:37:00,67.0,37.0,-100.00,East,95,2.0,6.0,33,-99.99,,,-99.99,,2013-05-17 23:37:00,
2013-05-17 19:47:00,67.0,38.0,-100.00,NNW,345,2.0,7.0,34,-99.99,,,-99.99,,2013-05-17 23:47:00,
2013-05-17 19:54:00,66.0,36.0,-100.00,SSE,160,1.0,6.0,33,-99.99,,,-99.99,,2013-05-17 23:54:00,
2013-05-17 20:02:00,66.0,37.0,-100.00,East,90,1.0,3.0,34,-99.99,,,-99.99,,2013-05-18 00:02:00,
2013-05-17 20:14:00,65.0,37.0,-100.00,SSE,160,1.0,8.0,35,-99.99,,,-99.99,,2013-05-18 00:14:00,
2013-05-17 20:22:00,64.0,40.0,-100.00,WNW,295,0.0,3.0,41,-99.99,,,-99.99,,2013-05-18 00:22:00,
2013-05-17 20:45:00,60.0,43.0,-100.00,WSW,250,1.0,3.0,52,-99.99,,,-99.99,,2013-05-18 00:45:00,
2013-05-17 20:54:00,59.0,42.0,-100.00,West,280,2.0,3.0,54,-99.99,,,-99.99,,2013-05-18 00:54:00,
2013-05-17 21:03:00,58.0,42.0,-100.00,East,100,0.0,3.0,56,-99.99,,,-99.99,,2013-05-18 01:03:00,
2013-05-17 21:13:00,57.0,43.0,-100.00,SE,130,0.0,2.0,58,-99.99,,,-99.99,,2013-05-18 01:13:00,
2013-05-17 21:24:00,57.0,43.0,-100.00,SW,220,1.0,1.0,59,-99.99,,,-99.99,,2013-05-18 01:24:00,
2013-05-17 21:32:00,56.0,43.0,-100.00,SW,215,1.0,2.0,62,-99.99,,,-99.99,,2013-05-18 01:32:00,
2013-05-17 21:43:00,56.0,43.0,-100.00,SW,220,1.0,2.0,62,-99.99,,,-99.99,,2013-05-18 01:43:00,
2013-05-17 21:52:00,55.0,43.0,-100.00,SSW,205,1.0,2.0,64,-99.99,,,-99.99,,2013-05-18 01:52:00,
2013-05-17 22:03:00,54.0,43.0,-100.00,SSE,155,1.0,1.0,67,-99.99,,,-99.99,,2013-05-18 02:03:00,
2013-05-17 22:12:00,54.0,43.0,-100.00,SSW,205,1.0,2.0,68,-99.99,,,-99.99,,2013-05-18 02:12:00,
2013-05-17 22:23:00,53.0,44.0,-100.00,WSW,255,0.0,3.0,70,-99.99,,,-99.99,,2013-05-18 02:23:00,
2013-05-17 22:32:00,53.0,44.0,-100.00,SSW,210,1.0,2.0,71,-99.99,,,-99.99,,2013-05-18 02:32:00,
2013-05-17 22:42:00,53.0,44.0,-100.00,WSW,250,1.0,2.0,72,-99.99,,,-99.99,,2013-05-18 02:42:00,
2013-05-17 22:53:00,53.0,45.0,-100.00,WSW,245,1.0,2.0,74,-99.99,,,-99.99,,2013-05-18 02:53:00,
2013-05-17 23:03:00,53.0,45.0,-100.00,SW,225,0.0,1.0,75,-99.99,,,-99.99,,2013-05-18 03:03:00,
2013-05-17 23:12:00,52.0,44.0,-100.00,WSW,245,1.0,3.0,75,-99.99,,,-99.99,,2013-05-18 03:12:00,
2013-05-17 23:23:00,52.0,45.0,-100.00,NW,320,1.0,2.0,76,-99.99,,,-99.99,,2013-05-18 03:23:00,
2013-05-17 23:33:00,52.0,45.0,-100.00,NW,305,0.0,2.0,76,-99.99,,,-99.99,,2013-05-18 03:33:00,
2013-05-17 23:43:00,51.0,44.0,-100.00,West,280,2.0,5.0,77,-99.99,,,-99.99,,2013-05-18 03:43:00,
2013-05-17 23:53:00,52.0,45.0,-100.00,NNE,15,1.0,6.0,78,-99.99,,,-99.99,,2013-05-18 03:53:00,